Marion, IN

2:28 AM EDT on March 24, 2017 (GMT -0400)
Marion Municipal

Weather History for KMZZ - April, 2014

Change the Weather History Date:

Thursday, April 3, 2014

  Actual Average (KMIE) Record (KMIE)
Temperature  
Mean Temperature 44 °F -  
Max Temperature 50 °F 55 °F 81 °F (2012)
Min Temperature 39 °F 36 °F 17 °F (1987)
Degree Days  
Heating Degree Days 20    
Moisture  
Dew Point 40 °F    
Average Humidity 92    
Maximum Humidity 100    
Minimum Humidity 58    
Precipitation  
Precipitation 1.42 in - - ()
Sea Level Pressure  
Sea Level Pressure 29.85 in    
Wind  
Wind Speed 14 mph (East)    
Max Wind Speed 22 mph    
Max Gust Speed 30 mph    
Visibility 5 miles    
Events Rain    
Averages and records for this station are not official NWS values.
T = Trace of Precipitation, MM = Missing Value Source: NWS Daily Summary

Daily Weather History Graph

Daily Weather History Graph

Search for Another Location

Airport or City:

Trip Planner

Search our weather history database for the weather conditions in past years. The results will help you decide how hot, cold, wet, or windy it might be!

Date:

Astronomy

Apr. 03, 2014 Rise Set
Actual Time 7:23 AM EDT 8:09 PM EDT
Civil Twilight 6:55 AM EDT 8:37 PM EDT
Nautical Twilight 6:22 AM EDT 9:09 PM EDT
Astronomical Twilight 5:49 AM EDT 9:43 PM EDT
Moon 9:51 AM EDT (4/3) No Moon Set
Length of Visible Light 13h 41m
Length of Day
12h 46m
Waxing Crescent, 17% of the Moon is Illuminated
Apr 3
Waxing Crescent
Apr 7
First Quarter
Apr 15
Full
Apr 22
Last Quarter
Apr 29
New

Hourly Weather History & Observations

Time (EDT) Temp. Windchill Dew Point Humidity Pressure Visibility Wind Dir Wind Speed Gust Speed Precip Events Conditions
12:15 AM 50.0 °F - 35.8 °F 58% 30.03 in 7.0 mi ENE 10.4 mph 18.4 mph N/A   Overcast
12:35 AM 49.6 °F - 35.2 °F 58% 30.04 in 10.0 mi East 11.5 mph - N/A   Overcast
12:55 AM 49.3 °F - 35.4 °F 59% 30.03 in 7.0 mi East 12.7 mph 16.1 mph N/A   Overcast
1:15 AM 48.9 °F - 35.8 °F 61% 30.03 in 10.0 mi East 13.8 mph - N/A   Overcast
1:35 AM 48.6 °F - 36.5 °F 63% 30.03 in 7.0 mi East 13.8 mph - N/A   Overcast
1:55 AM 47.8 °F - 37.4 °F 67% 30.03 in 7.0 mi ENE 9.2 mph - N/A   Overcast
2:15 AM 46.4 °F 40.4 °F 38.1 °F 73% 30.02 in 7.0 mi East 13.8 mph - 0.01 in Rain Light Rain
2:35 AM 45.1 °F 39.5 °F 38.3 °F 77% 30.01 in 7.0 mi East 11.5 mph 19.6 mph 0.01 in   Overcast
2:55 AM 44.8 °F 38.3 °F 37.6 °F 76% 30.01 in 10.0 mi East 13.8 mph 20.7 mph 0.01 in   Overcast
3:15 AM 44.2 °F 37.0 °F 37.2 °F 76% 30.00 in 10.0 mi East 16.1 mph 19.6 mph N/A   Overcast
3:35 AM 43.9 °F 36.8 °F 36.7 °F 76% 29.99 in 10.0 mi East 15.0 mph 21.9 mph N/A   Overcast
3:55 AM 43.7 °F 36.3 °F 36.3 °F 75% 29.98 in 7.0 mi East 16.1 mph 21.9 mph N/A   Overcast
4:15 AM 43.5 °F 36.7 °F 36.7 °F 77% 29.98 in 5.0 mi East 13.8 mph - 0.01 in Rain Light Rain
4:35 AM 43.0 °F 35.7 °F 37.4 °F 81% 29.97 in 7.0 mi East 15.0 mph 20.7 mph 0.03 in Rain Light Rain
4:55 AM 42.8 °F 35.4 °F 37.8 °F 82% 29.96 in 5.0 mi East 15.0 mph - 0.03 in Rain Light Rain
5:15 AM 42.4 °F 35.0 °F 37.9 °F 84% 29.96 in 5.0 mi East 15.0 mph - N/A   Overcast
5:35 AM 42.1 °F 34.2 °F 37.9 °F 85% 29.96 in 5.0 mi ENE 16.1 mph - 0.01 in Rain Light Rain
5:55 AM 41.2 °F 32.1 °F 37.4 °F 86% 29.94 in 7.0 mi East 19.6 mph 25.3 mph 0.03 in Rain Light Rain
6:15 AM 40.8 °F 31.7 °F 37.0 °F 86% 29.93 in 3.0 mi East 19.6 mph 24.2 mph 0.07 in Rain Light Rain
6:35 AM 40.3 °F 31.3 °F 38.1 °F 92% 29.92 in 5.0 mi East 18.4 mph 23.0 mph 0.07 in Rain Light Rain
6:55 AM 40.6 °F 31.2 °F 39.4 °F 95% 29.91 in 7.0 mi East 20.7 mph 24.2 mph 0.07 in   Overcast
7:15 AM 40.6 °F 33.0 °F 39.6 °F 96% 29.92 in 5.0 mi East 13.8 mph 23.0 mph N/A Rain Light Rain
7:35 AM 40.5 °F 30.9 °F 39.4 °F 96% 29.90 in 1.8 mi East 20.7 mph 25.3 mph 0.09 in Rain Light Rain
7:55 AM 40.3 °F 31.3 °F 39.7 °F 98% 29.90 in 2.5 mi East 18.4 mph 25.3 mph 0.15 in Rain Rain
8:15 AM 40.5 °F 33.2 °F 40.1 °F 99% 29.92 in 4.0 mi East 12.7 mph 23.0 mph 0.02 in Rain Light Rain
8:35 AM 40.8 °F 33.3 °F 40.1 °F 97% 29.93 in 2.5 mi ESE 13.8 mph 20.7 mph 0.08 in Rain Light Rain
8:55 AM 41.0 °F 32.8 °F 40.5 °F 98% 29.89 in 1.8 mi East 16.1 mph - 0.15 in Rain Light Rain
9:15 AM 41.0 °F 33.1 °F 40.5 °F 98% 29.89 in 2.0 mi East 15.0 mph 24.2 mph 0.06 in Rain Light Rain
9:35 AM 41.0 °F 32.8 °F 40.6 °F 99% 29.85 in 2.0 mi ESE 16.1 mph 27.6 mph 0.12 in Rain Light Rain
9:55 AM 41.2 °F 33.4 °F 41.0 °F 99% 29.84 in 1.0 mi East 15.0 mph 23.0 mph 0.26 in   Unknown
10:15 AM 41.5 °F 32.9 °F 41.5 °F 100% 29.82 in 2.0 mi East 18.4 mph 21.9 mph 0.04 in Rain Rain
10:35 AM 42.1 °F 34.2 °F 42.1 °F 100% 29.82 in 3.0 mi NE 16.1 mph 20.7 mph 0.08 in Rain Rain
10:55 AM 41.9 °F 34.0 °F 41.9 °F 100% 29.84 in 1.8 mi NE 16.1 mph - 0.27 in Rain Rain
11:15 AM 41.2 °F 32.1 °F 41.2 °F 100% 29.85 in 1.5 mi NE 19.6 mph - 0.15 in Rain Rain
11:35 AM 40.3 °F 30.4 °F 40.3 °F 100% 29.84 in 1.8 mi ENE 21.9 mph 27.6 mph 0.25 in Rain Light Rain
11:55 AM 40.1 °F 31.3 °F 40.1 °F 100% 29.83 in 1.8 mi East 17.3 mph 28.8 mph 0.36 in Rain Light Rain
12:15 PM 40.1 °F 30.7 °F 40.1 °F 100% 29.81 in 2.0 mi East 19.6 mph 26.5 mph 0.06 in Rain Rain
12:35 PM 40.5 °F 30.7 °F 40.5 °F 100% 29.78 in 2.5 mi East 21.9 mph - 0.09 in Rain Light Rain
12:55 PM 41.2 °F 32.1 °F 41.2 °F 100% 29.75 in 5.0 mi East 19.6 mph 29.9 mph 0.09 in Rain Light Rain
1:15 PM 41.5 °F 32.6 °F 41.4 °F 99% 29.76 in 7.0 mi East 19.6 mph - N/A   Overcast
1:35 PM 41.5 °F 32.9 °F 41.4 °F 99% 29.74 in 7.0 mi East 18.4 mph 24.2 mph N/A   Overcast
1:55 PM 41.9 °F 34.0 °F 41.7 °F 99% 29.73 in 5.0 mi East 16.1 mph 24.2 mph N/A   Overcast
2:15 PM 42.4 °F 35.0 °F 42.3 °F 99% 29.73 in 10.0 mi East 15.0 mph 20.7 mph N/A   Overcast
2:35 PM 42.8 °F 35.1 °F 42.8 °F 100% 29.73 in 4.0 mi East 16.1 mph 20.7 mph N/A   Overcast
2:55 PM 43.3 °F 35.8 °F 43.2 °F 99% 29.72 in 5.0 mi East 16.1 mph - N/A   Overcast
3:15 PM 43.7 °F 37.7 °F 43.5 °F 99% 29.72 in 7.0 mi ENE 11.5 mph 20.7 mph N/A   Overcast
3:35 PM 43.7 °F 35.7 °F 43.5 °F 99% 29.69 in 5.0 mi ENE 18.4 mph 23.0 mph N/A   Overcast
3:55 PM 43.3 °F 35.2 °F 43.0 °F 99% 29.68 in 4.0 mi ENE 18.4 mph 24.2 mph N/A   Overcast
4:15 PM 42.4 °F 34.7 °F 42.4 °F 100% 29.67 in 3.0 mi ENE 16.1 mph 23.0 mph N/A   Overcast
4:35 PM 42.1 °F 35.7 °F 42.1 °F 100% 29.69 in 3.0 mi ENE 11.5 mph - N/A   Overcast
4:55 PM 41.9 °F 35.4 °F 41.9 °F 100% 29.71 in 3.0 mi ENE 11.5 mph - N/A Rain Light Rain
5:15 PM 41.9 °F 35.4 °F 41.9 °F 100% 29.72 in 4.0 mi NE 11.5 mph 16.1 mph N/A   Overcast
5:35 PM 41.4 °F 33.0 °F 41.4 °F 100% 29.70 in 5.0 mi NE 17.3 mph - N/A   Overcast
5:55 PM 41.0 °F 33.9 °F 41.0 °F 100% 29.72 in 7.0 mi ENE 12.7 mph 21.9 mph N/A   Overcast
6:15 PM 41.0 °F 34.7 °F 41.0 °F 100% 29.75 in 3.0 mi ENE 10.4 mph - N/A   Overcast
6:55 PM 40.8 °F 35.6 °F 40.8 °F 100% 29.77 in 5.0 mi East 8.1 mph - N/A   Overcast
7:15 PM 40.6 °F 36.7 °F 40.6 °F 100% 29.77 in 3.0 mi ENE 5.8 mph - N/A   Overcast
7:35 PM 40.6 °F 38.6 °F 40.6 °F 100% 29.77 in 3.0 mi East 3.5 mph - N/A   Overcast
7:55 PM 40.6 °F 36.7 °F 40.6 °F 100% 29.76 in 2.5 mi East 5.8 mph - N/A   Overcast
8:15 PM 40.6 °F 38.6 °F 40.6 °F 100% 29.76 in 2.5 mi East 3.5 mph - N/A   Overcast
8:35 PM 40.5 °F 37.3 °F 40.5 °F 100% 29.77 in 2.0 mi ENE 4.6 mph - N/A   Overcast
8:55 PM 40.3 °F 38.2 °F 40.3 °F 100% 29.77 in 2.0 mi ESE 3.5 mph - N/A   Overcast
9:15 PM 40.5 °F - 40.5 °F 100% 29.77 in 2.0 mi Calm Calm - N/A   Overcast
9:35 PM 40.5 °F 36.5 °F 40.5 °F 100% 29.78 in 2.5 mi North 5.8 mph - N/A   Overcast
9:55 PM 40.5 °F 33.6 °F 40.5 °F 100% 29.76 in 3.0 mi NNE 11.5 mph - N/A   Overcast
10:15 PM 39.9 °F 32.5 °F 39.9 °F 100% 29.75 in 2.5 mi ENE 12.7 mph - N/A   Overcast
10:35 PM 39.6 °F 33.0 °F 39.6 °F 100% 29.74 in 2.5 mi ENE 10.4 mph - N/A   Overcast